RYR17ZZ EPKK-LDDU

Flight info

Callsign RYR17ZZ
Flight time 1h 13m
Altitude 35000
Route BABKO DCT NIDOK DCT PATAK DCT BAREB DCT NETKO
Aircraft B38M/M-SDE1FGHILORVWXY/HB1

Departure

Time 2026-05-04 11:19
Airport Kraków John Paul II International Airport (EPKK)

Arrival

Time 2026-05-04 12:33
Airport Dubrovnik Ruđer Bošković Airport (LDDU)
Time Latitude Longitude Altitude Speed Heading
2026-05-04 10:57 50.07414 19.80455 802 ft 0 kts 107°
2026-05-04 11:13 50.07415 19.80450 830 ft 3 kts 108°
2026-05-04 11:13 50.07427 19.80415 802 ft 4 kts 121°
2026-05-04 11:14 50.07438 19.80384 802 ft 4 kts 106°
2026-05-04 11:14 50.07438 19.80345 802 ft 4 kts 66°
2026-05-04 11:14 50.07428 19.80321 802 ft 1 kts 47°
2026-05-04 11:16 50.07426 19.80318 802 ft 0 kts 47°
2026-05-04 11:16 50.07431 19.80327 802 ft 3 kts 47°
2026-05-04 11:16 50.07460 19.80368 802 ft 8 kts 32°
2026-05-04 11:17 50.07527 19.80405 802 ft 12 kts 17°
2026-05-04 11:17 50.07609 19.80416 802 ft 12 kts 348°
2026-05-04 11:19 50.07854 19.79062 803 ft 119 kts 258°
2026-05-04 11:19 50.07627 19.77417 816 ft 181 kts 257°
2026-05-04 11:19 50.07368 19.75470 1553 ft 184 kts 258°
2026-05-04 11:19 50.07087 19.73548 2564 ft 181 kts 257°
2026-05-04 11:20 50.06790 19.71491 3178 ft 211 kts 255°
2026-05-04 11:20 50.06450 19.69131 3706 ft 237 kts 256°
2026-05-04 11:20 50.05839 19.66687 4575 ft 251 kts 234°
2026-05-04 11:20 50.04450 19.64991 5462 ft 257 kts 199°
2026-05-04 11:22 49.91382 19.59408 11246 ft 315 kts 195°
2026-05-04 11:22 49.89226 19.58512 11895 ft 326 kts 195°
2026-05-04 11:23 49.87021 19.57597 12707 ft 330 kts 195°
2026-05-04 11:23 49.84782 19.56671 13453 ft 336 kts 195°
2026-05-04 11:24 49.70740 19.50875 17305 ft 360 kts 195°
2026-05-04 11:25 49.68310 19.49875 17865 ft 364 kts 195°
2026-05-04 11:25 49.65880 19.48877 18398 ft 367 kts 195°
2026-05-04 11:25 49.63401 19.47860 18873 ft 371 kts 195°
2026-05-04 11:26 49.58296 19.46393 19811 ft 377 kts 188°
2026-05-04 11:27 49.39667 19.42202 22953 ft 397 kts 188°
2026-05-04 11:28 49.36929 19.41576 23387 ft 400 kts 188°
2026-05-04 11:28 49.34131 19.40937 23826 ft 402 kts 188°
2026-05-04 11:28 49.31386 19.40310 24178 ft 405 kts 188°
2026-05-04 11:28 49.28592 19.39673 24523 ft 408 kts 188°
2026-05-04 11:29 49.25778 19.39032 24890 ft 410 kts 188°
2026-05-04 11:29 49.22948 19.38389 25260 ft 413 kts 188°
2026-05-04 11:29 49.20097 19.37743 25617 ft 415 kts 188°
2026-05-04 11:29 49.17232 19.37093 25974 ft 418 kts 188°
2026-05-04 11:31 48.96684 19.32455 28279 ft 435 kts 189°
2026-05-04 11:33 48.76425 19.27920 30225 ft 448 kts 189°
2026-05-04 11:33 48.73334 19.27231 30459 ft 450 kts 189°
2026-05-04 11:33 48.70234 19.26541 30703 ft 451 kts 189°
2026-05-04 11:34 48.67118 19.25848 30937 ft 453 kts 189°
2026-05-04 11:34 48.63992 19.25154 31160 ft 455 kts 189°
2026-05-04 11:34 48.60860 19.24460 31380 ft 456 kts 189°
2026-05-04 11:34 48.57712 19.23763 31589 ft 458 kts 189°
2026-05-04 11:35 48.54558 19.23066 31805 ft 459 kts 189°
2026-05-04 11:35 48.51391 19.22366 32005 ft 461 kts 189°
2026-05-04 11:35 48.48208 19.21664 32204 ft 462 kts 189°
2026-05-04 11:35 48.45021 19.20962 32400 ft 464 kts 189°
2026-05-04 11:36 48.41824 19.20259 32593 ft 465 kts 189°
2026-05-04 11:36 48.38620 19.19555 32835 ft 465 kts 189°
2026-05-04 11:36 48.35417 19.18851 33108 ft 465 kts 189°
2026-05-04 11:36 48.32223 19.18152 33387 ft 464 kts 189°
2026-05-04 11:37 48.29027 19.17452 33637 ft 464 kts 189°
2026-05-04 11:37 48.25833 19.16753 33867 ft 464 kts 189°
2026-05-04 11:37 48.22643 19.16057 34102 ft 463 kts 189°
2026-05-04 11:37 48.19451 19.15360 34307 ft 463 kts 189°
2026-05-04 11:38 48.16268 19.14667 34500 ft 463 kts 189°
2026-05-04 11:38 48.13084 19.13974 34691 ft 462 kts 189°
2026-05-04 11:38 48.09897 19.13281 34888 ft 462 kts 189°
2026-05-04 11:38 48.06731 19.12472 35047 ft 461 kts 194°
2026-05-04 11:39 48.00471 19.10375 35095 ft 460 kts 193°
2026-05-04 11:41 47.78546 19.03394 35100 ft 461 kts 193°
2026-05-04 11:41 47.72273 19.01412 35097 ft 461 kts 193°
2026-05-04 11:42 47.65945 18.99417 35315 ft 462 kts 193°
2026-05-04 11:42 47.62806 18.98430 35479 ft 462 kts 193°
2026-05-04 11:42 47.59660 18.97441 35653 ft 462 kts 193°
2026-05-04 11:42 47.56518 18.96455 35815 ft 462 kts 193°
2026-05-04 11:43 47.53377 18.95471 35980 ft 462 kts 193°
2026-05-04 11:43 47.50237 18.94488 36129 ft 461 kts 193°
2026-05-04 11:43 47.47091 18.93504 36264 ft 461 kts 193°
2026-05-04 11:43 47.43955 18.92525 36434 ft 461 kts 193°
2026-05-04 11:44 47.40814 18.91545 36580 ft 461 kts 193°
2026-05-04 11:44 47.37673 18.90566 36717 ft 461 kts 193°
2026-05-04 11:44 47.34473 18.89571 36865 ft 460 kts 193°
2026-05-04 11:44 47.31404 18.88617 37003 ft 460 kts 193°
2026-05-04 11:45 47.28278 18.87647 37115 ft 460 kts 193°
2026-05-04 11:45 47.22018 18.85707 37106 ft 459 kts 193°
2026-05-04 11:46 47.15763 18.83773 37102 ft 459 kts 193°
2026-05-04 11:46 47.09507 18.81844 37106 ft 459 kts 193°
2026-05-04 11:47 47.03250 18.79919 37107 ft 460 kts 193°
2026-05-04 11:47 46.97028 18.78010 37103 ft 459 kts 193°
2026-05-04 11:48 46.90729 18.76081 37105 ft 460 kts 193°
2026-05-04 11:48 46.84467 18.74169 37107 ft 460 kts 193°
2026-05-04 11:49 46.78200 18.72260 37109 ft 460 kts 193°
2026-05-04 11:49 46.71975 18.70366 37104 ft 460 kts 193°
2026-05-04 11:50 46.65709 18.68467 37108 ft 460 kts 193°
2026-05-04 11:50 46.59439 18.66569 37106 ft 460 kts 193°
2026-05-04 11:51 46.53166 18.64676 37108 ft 460 kts 193°
2026-05-04 11:51 46.46853 18.62776 37106 ft 460 kts 193°
2026-05-04 11:52 46.40578 18.60891 37109 ft 461 kts 193°
2026-05-04 11:52 46.34341 18.59021 37109 ft 461 kts 193°
2026-05-04 11:53 46.28067 18.57145 37113 ft 460 kts 193°
2026-05-04 11:53 46.21794 18.55274 37109 ft 460 kts 193°
2026-05-04 11:55 45.96759 18.47849 37121 ft 460 kts 193°
2026-05-04 11:56 45.90487 18.45999 37124 ft 460 kts 193°
2026-05-04 11:56 45.84216 18.44154 37119 ft 460 kts 193°
2026-05-04 11:57 45.77943 18.42312 37117 ft 460 kts 193°
2026-05-04 11:57 45.71668 18.40482 37114 ft 460 kts 193°
2026-05-04 11:58 45.65394 18.38658 37111 ft 460 kts 193°
2026-05-04 11:58 45.59114 18.36836 37108 ft 460 kts 193°
2026-05-04 11:59 45.52843 18.35020 37104 ft 460 kts 193°
2026-05-04 11:59 45.46566 18.33207 37108 ft 460 kts 193°
2026-05-04 12:00 45.40294 18.31399 37112 ft 460 kts 193°
2026-05-04 12:00 45.34020 18.29595 37108 ft 460 kts 193°
2026-05-04 12:01 45.27746 18.27795 37116 ft 460 kts 193°
2026-05-04 12:02 45.05813 18.21533 37104 ft 460 kts 193°
2026-05-04 12:03 44.99530 18.19750 37102 ft 461 kts 193°
2026-05-04 12:03 44.93244 18.17968 37100 ft 461 kts 193°
2026-05-04 12:04 44.86998 18.16202 37094 ft 461 kts 193°
2026-05-04 12:04 44.80709 18.14428 37100 ft 461 kts 193°
2026-05-04 12:05 44.74415 18.12656 37094 ft 461 kts 193°
2026-05-04 12:05 44.68110 18.10885 37103 ft 462 kts 193°
2026-05-04 12:06 44.61810 18.09119 37107 ft 462 kts 193°
2026-05-04 12:06 44.55505 18.07357 37101 ft 462 kts 193°
2026-05-04 12:07 44.52364 18.06480 36970 ft 458 kts 193°
2026-05-04 12:07 44.49245 18.05610 36291 ft 458 kts 193°
2026-05-04 12:07 44.46122 18.04740 35641 ft 458 kts 193°
2026-05-04 12:07 44.43006 18.03873 35151 ft 454 kts 193°
2026-05-04 12:08 44.39961 18.03027 34715 ft 450 kts 193°
2026-05-04 12:08 44.36895 18.02175 34218 ft 448 kts 193°
2026-05-04 12:08 44.33849 18.01330 33656 ft 446 kts 193°
2026-05-04 12:08 44.30809 18.00488 33133 ft 443 kts 193°
2026-05-04 12:09 44.27796 17.99654 32640 ft 440 kts 193°
2026-05-04 12:09 44.24804 17.98827 32165 ft 437 kts 193°
2026-05-04 12:09 44.21829 17.98005 31687 ft 434 kts 193°
2026-05-04 12:09 44.18876 17.97190 31202 ft 432 kts 193°
2026-05-04 12:10 44.15940 17.96381 30738 ft 429 kts 193°
2026-05-04 12:10 44.13011 17.95575 30273 ft 427 kts 193°
2026-05-04 12:10 44.10100 17.94774 29747 ft 426 kts 193°
2026-05-04 12:10 44.07207 17.93979 29259 ft 423 kts 193°
2026-05-04 12:11 44.04370 17.93200 28822 ft 420 kts 193°
2026-05-04 12:11 44.01517 17.92418 28369 ft 416 kts 193°
2026-05-04 12:11 43.98685 17.91641 27927 ft 413 kts 193°
2026-05-04 12:11 43.95877 17.90873 27504 ft 410 kts 192°
2026-05-04 12:12 43.93088 17.90110 27080 ft 407 kts 192°
2026-05-04 12:12 43.90323 17.89355 26660 ft 404 kts 192°
2026-05-04 12:12 43.87570 17.88604 26240 ft 401 kts 192°
2026-05-04 12:12 43.84842 17.87860 25843 ft 399 kts 192°
2026-05-04 12:13 43.82119 17.87118 25429 ft 398 kts 192°
2026-05-04 12:14 43.63429 17.82044 22569 ft 385 kts 191°
2026-05-04 12:15 43.60799 17.81332 22160 ft 383 kts 191°
2026-05-04 12:15 43.58193 17.80629 21785 ft 381 kts 191°
2026-05-04 12:15 43.55600 17.79929 21399 ft 378 kts 191°
2026-05-04 12:15 43.53032 17.79235 21022 ft 375 kts 191°
2026-05-04 12:16 43.50481 17.78547 20638 ft 372 kts 191°
2026-05-04 12:16 43.47948 17.77866 20272 ft 370 kts 191°
2026-05-04 12:16 43.45430 17.77188 19895 ft 368 kts 191°
2026-05-04 12:16 43.42927 17.76515 19524 ft 365 kts 191°
2026-05-04 12:17 43.40436 17.75846 19156 ft 364 kts 191°
2026-05-04 12:17 43.37959 17.75181 18785 ft 362 kts 191°
2026-05-04 12:17 43.35492 17.74519 18418 ft 361 kts 191°
2026-05-04 12:17 43.33061 17.73868 18009 ft 360 kts 191°
2026-05-04 12:18 43.30611 17.73212 17620 ft 357 kts 191°
2026-05-04 12:18 43.28182 17.72563 17260 ft 355 kts 191°
2026-05-04 12:18 43.25764 17.71915 16901 ft 353 kts 191°
2026-05-04 12:18 43.23365 17.71275 16543 ft 350 kts 191°
2026-05-04 12:19 43.20981 17.70638 16186 ft 348 kts 191°
2026-05-04 12:19 43.18603 17.70004 15824 ft 347 kts 190°
2026-05-04 12:19 43.16243 17.69375 15482 ft 345 kts 190°
2026-05-04 12:19 43.13889 17.68749 15130 ft 344 kts 190°
2026-05-04 12:20 43.11550 17.68126 14791 ft 342 kts 190°
2026-05-04 12:20 43.09214 17.67505 14435 ft 341 kts 190°
2026-05-04 12:20 43.06887 17.66886 14082 ft 341 kts 190°
2026-05-04 12:20 43.04569 17.66211 13698 ft 341 kts 197°
2026-05-04 12:21 43.02484 17.64721 13253 ft 335 kts 214°
2026-05-04 12:21 43.00583 17.63045 12928 ft 324 kts 212°
2026-05-04 12:21 42.98683 17.61405 12618 ft 314 kts 212°
2026-05-04 12:21 42.96900 17.59863 12386 ft 300 kts 212°
2026-05-04 12:22 42.95186 17.58381 12278 ft 285 kts 212°
2026-05-04 12:22 42.93528 17.56973 12133 ft 279 kts 207°
2026-05-04 12:22 42.91677 17.56218 11764 ft 280 kts 181°
2026-05-04 12:22 42.89770 17.56615 11455 ft 278 kts 155°
2026-05-04 12:23 42.88147 17.58001 11150 ft 276 kts 135°
2026-05-04 12:23 42.86756 17.59801 10858 ft 276 kts 134°
2026-05-04 12:23 42.85378 17.61629 10490 ft 276 kts 133°
2026-05-04 12:23 42.84018 17.63469 10198 ft 275 kts 133°
2026-05-04 12:24 42.82660 17.65323 9801 ft 278 kts 133°
2026-05-04 12:24 42.81285 17.67213 9364 ft 283 kts 132°
2026-05-04 12:24 42.79898 17.69129 8968 ft 284 kts 133°
2026-05-04 12:24 42.78983 17.70398 8753 ft 283 kts 132°
2026-05-04 12:25 42.78137 17.71573 8551 ft 282 kts 132°
2026-05-04 12:25 42.76989 17.73699 8194 ft 278 kts 115°
2026-05-04 12:25 42.76104 17.76029 7890 ft 277 kts 116°
2026-05-04 12:25 42.75208 17.78339 7583 ft 275 kts 116°
2026-05-04 12:26 42.74615 17.79862 7369 ft 275 kts 116°
2026-05-04 12:26 42.73715 17.82161 7088 ft 276 kts 116°
2026-05-04 12:26 42.72514 17.85232 6609 ft 279 kts 116°
2026-05-04 12:26 42.71602 17.87562 6273 ft 279 kts 116°
2026-05-04 12:27 42.70705 17.89861 5915 ft 271 kts 116°
2026-05-04 12:27 42.69835 17.92085 5605 ft 262 kts 116°
2026-05-04 12:27 42.69000 17.94237 5305 ft 253 kts 117°
2026-05-04 12:27 42.68178 17.96328 5044 ft 249 kts 117°
2026-05-04 12:28 42.67641 17.97688 4852 ft 245 kts 116°
2026-05-04 12:28 42.66859 17.99682 4618 ft 233 kts 117°
2026-05-04 12:28 42.66108 18.01589 4339 ft 225 kts 117°
2026-05-04 12:28 42.65380 18.03435 4029 ft 218 kts 118°
2026-05-04 12:29 42.64677 18.05217 3739 ft 211 kts 118°
2026-05-04 12:29 42.63993 18.06951 3466 ft 205 kts 118°
2026-05-04 12:29 42.63337 18.08613 3235 ft 192 kts 118°
2026-05-04 12:29 42.62718 18.10181 2971 ft 185 kts 119°
2026-05-04 12:30 42.62121 18.11695 2723 ft 179 kts 120°
2026-05-04 12:30 42.61534 18.13182 2480 ft 178 kts 120°
2026-05-04 12:30 42.60964 18.14624 2257 ft 170 kts 120°
2026-05-04 12:30 42.60412 18.16022 2016 ft 167 kts 120°
2026-05-04 12:31 42.59864 18.17407 1806 ft 166 kts 120°
2026-05-04 12:31 42.59340 18.18730 1604 ft 155 kts 120°
2026-05-04 12:31 42.58833 18.20015 1381 ft 154 kts 119°
2026-05-04 12:31 42.58322 18.21305 1155 ft 156 kts 119°
2026-05-04 12:32 42.57803 18.22610 982 ft 161 kts 119°
2026-05-04 12:32 42.56748 18.25277 542 ft 148 kts 120°
2026-05-04 12:32 42.56334 18.26325 535 ft 98 kts 118°
2026-05-04 12:33 42.56098 18.26921 537 ft 52 kts 118°
2026-05-04 12:33 42.55993 18.27185 536 ft 25 kts 118°
2026-05-04 12:33 42.55885 18.27326 534 ft 19 kts 172°
2026-05-04 12:33 42.55784 18.27318 536 ft 11 kts 228°
2026-05-04 12:34 42.55782 18.27249 536 ft 4 kts 290°
2026-05-04 12:34 42.55788 18.27232 536 ft 6 kts 297°
2026-05-04 12:34 42.55828 18.27132 536 ft 17 kts 298°
2026-05-04 12:34 42.55887 18.26982 537 ft 19 kts 298°
2026-05-04 12:35 42.55954 18.26814 537 ft 21 kts 298°
2026-05-04 12:35 42.56025 18.26635 536 ft 22 kts 298°
2026-05-04 12:35 42.56102 18.26442 536 ft 24 kts 298°
2026-05-04 12:35 42.56182 18.26239 536 ft 17 kts 298°
2026-05-04 12:36 42.56169 18.26171 536 ft 3 kts 215°
2026-05-04 12:36 42.56153 18.26159 536 ft 3 kts 209°
2026-05-04 12:36 42.56151 18.26157 536 ft 0 kts 209°